FW2442 Weather Reports


time (UTC)temp
F
wind
direction
speed
knots
gust
knots
rain 1hr
in
rain 24hr
in
rain mn
in
humidity
%
barometer
mb
20260905005518 65 151 5.2 12.2 0.00 0.00 0.00 76 1013.2
20260905004516 65 150 5.2 6.1 0.00 0.00 0.00 76 1013.2
20260905003537 65 172 6.1 7.8 0.00 0.00 0.00 76 1013.2
20260905002521 65 184 6.1 9.6 0.00 0.00 0.00 76 1013.3
20260905001537 65 207 2.6 4.3 0.00 0.00 0.00 77 1013.3
20260905000539 65 183 3.5 4.3 0.00 0.00 0.00 77 1013.3
20260904235517 65 199 0.9 3.5 0.00 0.00 0.00 77 1013.4
20260904234517 65 179 5.2 6.1 0.00 0.00 0.00 77 1013.3
20260904233517 66 219 5.2 7.8 0.00 0.00 0.00 76 1013.2
20260904232521 66 253 2.6 4.3 0.00 0.00 0.00 76 1013.1
20260904231517 67 201 2.6 5.2 0.00 0.00 0.00 75 1013.2
20260904230517 67 209 5.2 7.8 0.00 0.00 0.00 74 1013.4
20260904225518 67 268 2.6 5.2 0.00 0.00 0.00 74 1013.5
20260904224537 67 278 4.3 6.1 0.00 0.00 0.00 74 1013.5
20260904223517 67 239 5.2 7.0 0.00 0.00 0.00 74 1013.5
20260904222522 68 251 3.5 5.2 0.00 0.00 0.00 73 1013.5
20260904221538 69 223 7.8 9.6 0.00 0.00 0.00 71 1013.3
20260904220518 69 252 6.1 7.8 0.00 0.00 0.00 72 1013.5
20260904215518 68 250 5.2 7.0 0.00 0.00 0.00 72 1013.5
20260904214517 68 265 4.3 6.1 0.00 0.00 0.00 72 1013.6
20260904213518 68 258 5.2 7.0 0.00 0.00 0.00 72 1013.7
20260904212521 69 228 7.0 8.7 0.00 0.00 0.00 71 1013.6
20260904211518 69 227 4.3 7.0 0.00 0.00 0.00 71 1013.7
20260904210517 69 189 5.2 7.8 0.00 0.00 0.00 70 1013.6
20260904205518 70 184 4.3 6.1 0.00 0.00 0.00 69 1013.5
20260904204517 71 151 4.3 6.1 0.00 0.00 0.00 67 1013.5
20260904203517 71 172 2.6 6.1 0.00 0.00 0.00 67 1013.6
20260904202517 71 240 0.9 4.3 0.00 0.00 0.00 66 1013.6
20260904201538 71 28 0.0 2.6 0.00 0.00 0.00 66 1013.5
20260904200538 71 245 0.9 6.1 0.00 0.00 0.00 66 1013.5
20260904195540 71 0.0 0.0 0.00 0.00 0.00 66 1013.5
20260904194518 72 157 0.9 3.5 0.00 0.00 0.00 65 1013.5
20260904193518 72 164 4.3 6.1 0.00 0.00 0.00 64 1013.5
20260904192519 72 164 3.5 4.3 0.00 0.00 0.00 63 1013.5
20260904191518 72 207 0.9 3.5 0.00 0.00 0.00 63 1013.4
20260904190519 73 166 0.9 2.6 0.00 0.00 0.00 63 1013.6
20260904185537 72 155 4.3 7.8 0.00 0.00 0.00 63 1013.6
20260904184518 72 145 0.9 4.3 0.00 0.00 0.00 66 1013.7
20260904183516 72 0.0 0.0 0.00 0.00 0.00 66 1013.7
20260904182517 73 251 0.0 2.6 0.00 0.00 0.00 65 1013.7
20260904181517 73 127 2.6 5.2 0.00 0.00 0.00 65 1013.7
20260904180522 73 26 0.9 2.6 0.00 0.00 0.00 65 1013.6
20260904175517 73 115 4.3 6.1 0.00 0.00 0.00 65 1013.6
20260904174537 74 195 0.0 2.6 0.00 0.00 0.00 63 1013.6
20260904173518 73 110 2.6 4.3 0.00 0.00 0.00 65 1013.5
20260904172518 74 27 0.9 4.3 0.00 0.00 0.00 65 1013.4
20260904171557 74 85 0.0 2.6 0.00 0.00 0.00 63 1013.3
20260904170518 75 337 0.9 7.0 0.00 0.00 0.00 61 1013.1
20260904165517 76 0.0 0.0 0.00 0.00 0.00 61 1013.0
20260904164518 77 12 0.9 3.5 0.00 0.00 0.00 58 1013.0
20260904163517 78 19 0.0 2.6 0.00 0.00 0.00 56 1013.1
20260904162519 79 226 0.9 4.3 0.00 0.00 0.00 53 1013.2
20260904161517 80 218 2.6 5.2 0.00 0.00 0.00 51 1013.1
20260904160518 79 278 1.7 4.3 0.00 0.00 0.00 52 1013.3
20260904155518 79 257 0.9 3.5 0.00 0.00 0.00 53 1013.3
20260904154519 77 163 4.3 7.0 0.00 0.00 0.00 53 1013.4
20260904153517 76 134 5.2 9.6 0.00 0.00 0.00 56 1013.4
20260904152519 77 213 17.4 28.7 0.00 0.00 0.00 55 1013.5
20260904151517 80 219 7.8 12.2 0.00 0.00 0.00 48 1013.3
20260904150518 80 289 3.5 7.0 0.00 0.00 0.00 46 1013.4
20260904145518 81 337 4.3 7.0 0.00 0.00 0.00 45 1013.4
20260904144518 81 321 3.5 6.1 0.00 0.00 0.00 44 1013.3
20260904143538 81 315 4.3 6.1 0.00 0.00 0.00 45 1013.3
20260904142518 81 351 4.3 6.1 0.00 0.00 0.00 44 1013.3
20260904141518 82 333 6.1 9.6 0.00 0.00 0.00 43 1013.3
20260904140519 83 313 3.5 7.8 0.00 0.00 0.00 43 1013.4
20260904135537 82 172 3.5 7.0 0.00 0.00 0.00 42 1013.5
20260904134538 82 263 5.2 7.8 0.00 0.00 0.00 43 1013.5
20260904133518 82 283 9.6 16.5 0.00 0.00 0.00 43 1013.4
20260904132518 84 313 8.7 13.0 0.00 0.00 0.00 42 1013.4
20260904131537 84 344 6.1 12.2 0.00 0.00 0.00 42 1013.4
20260904130522 84 293 8.7 20.0 0.00 0.00 0.00 43 1013.5
20260904125539 83 296 13.0 23.5 0.00 0.00 0.00 44 1013.6
20260904124516 83 271 17.4 25.2 0.00 0.00 0.00 43 1013.7
20260904123538 83 253 16.5 24.3 0.00 0.00 0.00 43 1013.8
20260904122538 81 249 11.3 18.2 0.00 0.00 0.00 45 1014.0
20260904121517 83 272 11.3 16.5 0.00 0.00 0.00 44 1014.1
20260904120518 82 314 5.2 9.6 0.00 0.00 0.00 45 1014.1
20260904115518 82 248 15.6 30.4 0.00 0.00 0.00 46 1014.2
20260904114518 82 236 16.5 24.3 0.00 0.00 0.00 45 1014.3
20260904113519 82 210 13.0 19.1 0.00 0.00 0.00 46 1014.4
20260904112518 82 199 20.0 26.1 0.00 0.00 0.00 47 1014.5
20260904111519 81 171 8.7 18.2 0.00 0.00 0.00 48 1014.7
20260904110517 80 213 13.9 26.1 0.00 0.00 0.00 49 1014.8
20260904105538 80 254 20.0 29.5 0.00 0.00 0.00 49 1014.9
20260904104519 80 204 6.1 11.3 0.00 0.00 0.00 49 1014.9
20260904103518 79 233 13.0 18.2 0.00 0.00 0.00 50 1015.0
20260904102539 79 264 13.9 26.9 0.00 0.00 0.00 51 1015.0
20260904101556 79 234 11.3 24.3 0.00 0.00 0.00 51 1015.1
20260904100519 79 280 16.5 27.8 0.00 0.00 0.00 51 1015.2
20260904095519 79 191 8.7 14.8 0.00 0.00 0.00 50 1015.4
20260904094538 78 245 13.0 20.0 0.00 0.00 0.00 53 1015.4
20260904093518 78 253 11.3 16.5 0.00 0.00 0.00 53 1015.4
20260904092538 77 234 11.3 20.0 0.00 0.00 0.00 54 1015.5
20260904091539 77 175 13.0 18.2 0.00 0.00 0.00 53 1015.6
20260904090517 77 231 12.2 21.7 0.00 0.00 0.00 55 1015.6
20260904085518 77 219 11.3 25.2 0.00 0.00 0.00 55 1015.7
20260904084518 76 158 9.6 14.8 0.00 0.00 0.00 56 1015.8
20260904083538 76 194 7.8 14.8 0.00 0.00 0.00 59 1015.8
20260904082557 75 175 11.3 17.4 0.00 0.00 0.00 61 1016.0
20260904081518 75 208 8.7 13.0 0.00 0.00 0.00 62 1016.1
20260904080558 73 255 8.7 15.6 0.00 0.00 0.00 64 1016.2
20260904075518 72 256 9.6 20.9 0.00 0.00 0.00 65 1016.3
20260904074518 71 205 11.3 17.4 0.00 0.00 0.00 68 1016.3
20260904073518 70 291 7.8 13.9 0.00 0.00 0.00 70 1016.3
20260904072518 69 301 8.7 17.4 0.00 0.00 0.00 73 1016.2
20260904071518 69 300 13.0 23.5 0.00 0.00 0.00 74 1016.3
20260904070518 69 298 12.2 20.0 0.00 0.00 0.00 74 1016.3
20260904065538 69 308 10.4 18.2 0.00 0.00 0.00 74 1016.2
20260904064519 68 270 7.8 13.0 0.00 0.00 0.00 75 1016.3
20260904063519 69 280 10.4 14.8 0.00 0.00 0.00 74 1015.9
20260904062538 68 185 4.3 13.0 0.00 0.00 0.00 73 1016.2
20260904061518 67 185 5.2 7.8 0.00 0.00 0.00 74 1016.2
20260904060558 67 259 4.3 7.0 0.00 0.00 0.00 75 1016.2
20260904055518 67 215 4.3 11.3 0.00 0.00 0.00 74 1016.2
20260904054518 65 100 4.3 13.0 0.00 0.00 0.00 78 1016.2
20260904053517 64 299 5.2 13.0 0.00 0.00 0.00 81 1016.1
20260904052519 63 161 5.2 9.6 0.00 0.00 0.00 83 1016.1
20260904051520 62 199 5.2 10.4 0.00 0.00 0.00 84 1016.0
20260904050518 62 212 2.6 6.1 0.00 0.00 0.00 86 1015.7
20260904045558 61 168 4.3 6.1 0.00 0.00 0.00 87 1016.2
20260904044518 60 149 6.1 7.8 0.00 0.00 0.00 88 1016.2
20260904043518 59 128 3.5 6.1 0.00 0.00 0.00 88 1016.3
20260904042518 59 167 4.3 11.3 0.00 0.00 0.00 88 1016.3
20260904041518 59 141 5.2 7.0 0.00 0.00 0.00 88 1016.3
20260904040518 60 155 1.7 6.1 0.00 0.00 0.00 85 1016.3
20260904035538 61 21 7.0 11.3 0.00 0.00 0.00 86 1016.1
20260904034521 61 20 6.1 9.6 0.00 0.00 0.00 85 1016.3
20260904033519 61 14 7.0 9.6 0.00 0.00 0.00 86 1016.3
20260904032518 60 353 6.1 9.6 0.00 0.00 0.00 86 1016.4
20260904031517 60 283 5.2 13.0 0.00 0.00 0.00 86 1016.5
20260904030520 60 297 8.7 11.3 0.00 0.00 0.00 85 1016.4
20260904025516 60 286 13.9 20.0 0.00 0.00 0.00 85 1016.4
20260904024519 60 280 13.9 20.0 0.00 0.00 0.00 85 1016.4
20260904023520 60 301 14.8 20.9 0.00 0.00 0.00 83 1016.4
20260904022538 60 285 14.8 20.0 0.00 0.00 0.00 84 1016.4
20260904021519 60 285 8.7 11.3 0.00 0.00 0.00 82 1016.1
20260904020519 61 322 5.2 7.8 0.00 0.00 0.00 82 1015.9
20260904015540 60 223 5.2 8.7 0.00 0.00 0.00 83 1016.0
20260904014520 60 308 6.1 10.4 0.00 0.00 0.00 83 1016.0
20260904013518 60 240 4.3 8.7 0.00 0.00 0.00 84 1015.9
20260904012538 60 360 2.6 8.7 0.00 0.00 0.00 84 1015.8
20260904011518 60 170 7.8 11.3 0.00 0.00 0.00 84 1015.9
20260904010537 60 226 3.5 7.8 0.00 0.00 0.00 83 1016.0